Terminal Aerodrome Forecast
Issued by NWS

Current Version | Previous Version | Text Only | Print | Product List | Glossary Off
Versions: 1 2 3 4 5 6 7 8 9 10 11 12 13 14 15 16 17 18 19 20 21 22 23 24 25 26 27 28 29 30 31 32 33 34 35 36 37 38 39 40 41 42 43 44 45 46

000
FTUS41 KRNK 151548 AAC
TAFLWB
TAF AMD
KLWB 151548Z 1516/1612 04003KT P6SM OVC004
     FM151800 08005KT P6SM SCT004 BKN035
     FM152200 12004KT P6SM SCT250
     FM160500 14004KT P6SM SCT100 OVC150
     FM160900 02003KT 4SM -SHRA BR SCT012 OVC060=

USA.gov is the U.S. government's official web portal to all federal, state and local government web resources and services.